Location: ActonStarParty
(42.4766°N, 71.4538°W)
Time: 19:23:45
(UTC-04:00)

ATLAS 5 CENTAUR R/B - Visible Passes

Search period start: 26 August 2016 00:00
Search period end: 05 September 2016 00:00
Orbit: 236 x 14673 km, 60.8° (Epoch: 07 August)

Date Brightness Start Highest point End Pass type
(mag) Time Alt. Az. Time Alt. Az. Time Alt. Az.
26 Aug 6.9 02:42:21 34° SW 03:16:08 77° NW 05:36:14 10° ENE visible
26 Aug 7.7 20:53:00 10° ENE 21:19:45 15° NE 21:58:13 10° NNE visible
27 Aug 6.7 01:10:36 49° S 01:31:04 81° ESE 03:43:52 10° NE visible
27 Aug 6.8 23:38:45 42° SE 23:56:52 56° E 01:49:43 10° NE visible
28 Aug 7.4 04:08:23 13° W 05:23:43 64° N 07:18:58 10° E visible
28 Aug 7.2 22:06:50 23° ESE 22:30:44 34° ENE 23:55:14 10° NNE visible
29 Aug 7.0 02:36:27 33° WSW 03:12:21 75° NW 05:32:04 10° ENE visible
29 Aug 7.6 20:41:37 10° E 21:10:39 17° NE 21:56:03 10° NNE visible
30 Aug 6.7 01:04:26 49° SSW 01:25:10 85° ESE 03:39:50 10° NE visible
30 Aug 7.9 05:44:37 10° WNW 07:53:03 72° NE 08:54:21 10° SE visible
30 Aug 6.8 23:32:20 45° SE 23:49:29 59° E 01:45:22 10° NE visible
31 Aug 7.5 04:01:54 12° W 05:25:12 64° N 07:13:33 10° E visible
31 Aug 7.1 22:00:09 26° ESE 22:22:09 36° ENE 23:50:38 10° NNE visible
01 Sep 7.1 02:29:42 31° WSW 03:08:13 73° NW 05:27:09 10° ENE visible
01 Sep 7.5 20:30:50 10° E 21:01:10 19° NE 21:52:29 10° NNE visible
02 Sep 6.7 00:57:25 49° SSW 01:18:50 88° ESE 03:35:07 10° ENE visible
02 Sep 8.0 05:39:03 10° WNW 07:49:25 74° NE 08:47:49 10° SE visible
02 Sep 6.7 23:25:01 47° SSE 23:41:42 63° E 01:40:20 10° NE visible
03 Sep 7.6 03:54:47 10° W 05:26:14 64° N 07:07:24 10° ESE visible
03 Sep 7.0 21:52:32 29° ESE 22:13:12 39° ENE 23:45:18 10° NE visible
04 Sep 7.1 02:22:02 29° WSW 03:03:44 71° NW 05:21:30 10° E visible
04 Sep 7.4 20:20:16 10° E 20:51:17 20° ENE 21:47:48 10° NNE visible
